Theta_e
331 329 331 337 333 333 328 325 321 311 307 310 314 317 318 317 315 315 316 317 317 318 316 313 310 314 319 319 318 320 319 319
329 327 328 333 336 329 326 323 314 308 309 313 316 317 317 317 315 316 316 317 318 319 319 316 310 313 317 317 316 317 319 318
332 330 327 325 328 325 321 313 309 309 314 317 318 319 319 316 316 316 317 317 318 320 320 318 312 310 313 315 314 314 314 314
328 328 328 325 325 325 315 313 312 314 317 322 321 319 317 316 316 316 317 317 319 320 319 318 318 313 309 310 312 312 311 309
330 329 329 329 325 324 313 316 316 319 321 320 319 317 317 315 315 316 317 317 319 320 319 319 318 317 313 308 309 309 308 308
329 328 326 327 325 320 311 312 317 318 318 318 317 317 315 314 315 316 317 318 319 320 320 320 319 318 310 308 308 308 307 307
327 328 326 324 324 323 316 312 312 315 318 318 317 315 314 314 315 316 318 319 320 320 320 320 318 316 310 310 308 308 306 307
325 324 326 325 324 317 311 313 320 320 319 319 318 319 315 314 315 316 318 319 320 320 320 321 318 314 310 310 309 307 307 306
322 323 324 323 317 316 315 320 322 318 315 319 321 316 316 314 316 317 319 320 320 320 320 319 317 316 310 310 309 308 307 306
322 322 322 321 322 320 315 320 318 313 315 316 316 316 321 322 322 321 322 321 321 321 320 317 315 314 310 309 309 309 308 307
321 322 322 322 322 319 314 317 312 315 314 315 315 319 323 323 324 323 323 322 321 321 319 319 316 314 310 310 310 310 311 310
320 319 320 319 318 315 313 312 313 313 315 314 314 315 319 321 319 323 322 322 321 321 320 319 316 313 310 310 309 309 311 311
319 318 317 315 314 313 312 314 315 318 321 320 320 319 314 319 320 322 323 322 322 321 320 318 315 311 310 309 309 311 312 311
315 314 314 314 314 315 315 316 317 320 321 321 322 322 320 318 318 323 323 323 322 321 320 318 316 313 312 311 311 312 312 311
318 319 319 318 316 318 321 322 321 320 322 322 322 322 320 319 320 323 324 323 322 321 320 319 318 316 313 310 312 312 311 311
321 322 322 321 320 321 321 321 321 319 318 321 321 323 322 321 321 323 323 323 322 321 319 319 318 317 313 312 311 311 310 309
322 323 325 324 321 322 324 323 322 321 321 322 324 325 324 323 320 322 323 322 322 320 319 319 318 315 313 312 312 310 309 309
324 323 324 327 326 325 326 325 322 321 323 322 323 324 325 324 322 322 323 323 323 322 321 319 318 315 313 313 312 310 309 308
325 326 326 327 326 326 326 327 324 322 321 322 323 323 325 325 324 322 323 322 323 322 320 318 316 314 313 312 310 309 309 309
326 326 326 326 327 327 326 327 326 324 323 324 326 326 325 324 324 322 321 320 322 322 320 318 314 313 313 312 310 308 309 309
Wind_Speed
2 22 29 30 45 42 38 33 30 29 31 32 32 31 30 28 27 26 24 22 21 19 19 18 18 21 21 21 12 6 4 7
21 29 22 23 44 43 38 34 30 32 32 32 31 30 29 28 25 23 21 20 19 18 17 17 17 20 20 18 11 8 6 7
22 23 18 1 25 30 31 30 30 31 31 32 32 32 30 27 24 22 20 18 17 15 15 15 15 15 14 14 8 7 3 4
20 22 24 29 27 22 24 26 29 30 31 31 32 31 29 26 22 20 19 17 15 14 14 12 12 10 10 13 8 4 1 5
18 25 26 23 29 33 32 28 28 28 29 30 30 29 27 22 21 20 18 17 14 12 11 7 8 8 5 8 6 2 1 5
26 24 24 29 37 37 38 38 32 28 27 26 27 27 24 22 21 19 17 15 13 12 7 6 5 3 4 6 4 1 2 4
32 39 43 41 36 38 41 42 32 30 28 26 24 23 22 20 18 17 16 14 13 10 7 6 5 4 4 6 6 3 4 3
29 31 35 39 39 42 44 39 34 31 30 23 19 18 18 18 17 16 15 13 15 10 8 7 4 3 1 1 1 3 4 3
28 30 35 37 39 41 44 40 36 34 31 24 18 16 14 17 15 15 16 14 13 11 10 8 4 3 4 3 5 3 4 4
28 31 31 37 41 42 47 47 43 39 32 29 23 16 15 16 14 14 15 18 16 14 12 9 8 6 6 5 4 3 1 5
29 30 34 36 37 38 43 45 36 32 38 33 26 19 20 20 18 18 22 22 20 17 15 14 13 10 9 8 7 8 7 7
26 27 26 27 28 28 33 39 35 35 39 25 22 24 23 24 23 22 25 23 21 20 19 16 14 11 12 13 12 10 9 10
28 31 29 28 31 32 35 37 33 28 23 23 24 25 29 24 23 24 24 25 24 22 19 18 19 17 19 13 13 13 13 13
35 33 33 35 37 36 33 28 27 26 24 26 27 27 25 28 28 27 26 24 23 23 23 23 22 23 22 23 16 19 20 18
29 27 28 29 31 29 26 24 23 27 30 31 32 32 28 28 26 27 26 24 25 26 26 25 25 25 25 20 10 11 14 16
27 26 27 25 26 28 30 31 35 33 34 34 33 29 28 29 28 26 28 28 27 29 29 25 24 27 26 24 25 13 10 8
29 30 28 26 28 27 30 31 29 28 29 31 32 30 27 29 30 27 29 29 26 28 30 30 27 27 33 31 27 26 17 14
31 32 32 29 29 30 31 37 33 33 31 35 34 33 30 29 30 29 28 30 30 33 30 33 34 32 31 28 29 26 16 12
35 35 39 37 35 32 36 38 37 33 36 38 37 35 34 32 28 29 27 28 34 33 32 36 34 33 30 30 25 21 17 17
42 41 40 43 40 39 38 38 38 36 34 35 35 35 33 25 22 24 23 25 30 34 35 38 33 27 33 31 26 23 21 21
Wind_Direction
51 180 6 194 177 163 158 157 155 154 152 149 149 147 146 140 137 135 136 131 124 118 108 103 104 123 124 118 103 103 55 22
205 196 243 79 160 151 153 155 155 151 150 150 149 147 145 142 139 139 136 137 129 117 111 102 104 121 125 121 103 84 53 9
178 178 177 243 118 132 140 146 146 147 149 149 147 144 145 145 141 143 145 140 133 124 108 100 102 121 123 121 111 94 59 355
186 190 181 159 138 132 136 140 143 146 147 146 146 146 148 144 146 150 148 147 138 125 125 118 110 110 101 124 153 137 29 353
184 174 188 193 175 162 146 139 140 144 145 152 149 149 147 148 154 157 158 154 152 143 140 120 94 79 91 121 147 147 351 352
179 187 191 184 163 158 161 154 149 147 146 153 154 150 149 159 160 166 165 162 162 162 155 137 123 159 128 124 135 335 287 329
171 170 166 164 170 175 159 154 151 158 153 158 155 150 162 166 172 174 176 172 183 190 179 180 173 167 151 133 143 205 235 267
169 167 171 172 175 167 165 163 158 152 156 159 163 159 172 180 184 183 185 185 203 204 211 205 188 172 148 157 179 150 265 247
165 170 176 174 166 162 160 161 161 154 163 162 155 172 180 188 189 189 199 201 214 212 220 207 215 238 198 199 194 182 227 268
172 169 166 162 163 164 164 168 170 163 173 177 178 186 188 196 199 200 198 214 224 224 219 207 225 249 248 231 230 275 224 267
167 171 165 164 166 167 171 173 167 174 184 184 201 201 199 207 208 216 212 221 223 229 224 216 218 234 242 256 252 266 279 291
163 164 171 171 176 174 174 172 184 195 188 203 211 218 216 215 218 222 222 227 227 228 224 220 222 225 223 247 250 270 278 289
161 153 149 161 166 170 172 174 176 192 207 215 215 218 219 223 223 226 225 233 234 232 225 219 220 212 212 222 239 262 265 268
150 151 153 154 158 163 174 181 194 202 208 221 225 226 225 226 231 229 230 230 232 230 224 222 219 225 219 225 241 243 247 249
164 169 169 174 181 184 193 198 200 205 212 217 221 230 234 230 228 233 238 236 241 236 231 230 233 232 231 226 219 224 220 231
181 181 185 189 190 193 197 202 212 214 213 215 222 226 229 228 233 231 233 235 240 237 238 240 242 233 232 230 238 231 220 218
192 196 198 194 195 198 200 206 212 216 216 221 224 229 237 234 237 231 233 237 240 236 240 248 242 231 230 232 231 235 238 247
202 206 210 207 203 207 213 212 216 214 219 222 226 232 236 237 237 234 234 236 240 240 244 245 244 229 232 239 243 227 235 241
205 208 214 216 215 213 212 221 215 217 217 224 226 230 234 238 239 236 235 248 244 250 244 238 237 234 226 229 230 246 255 258
210 211 210 212 220 223 223 224 220 220 217 224 231 235 245 247 236 239 253 252 241 244 242 243 233 230 234 233 233 244 255 273